User: anonymous   Login
Location: Unspecified
(0.0000°N, 0.0000°E)
Time: 11:02:33
(UTC+00:00)
Language:

MOZHAYETS 4 - Orbit

View from above orbital plane
View from above orbital plane
View from above satellite
View from above satellite

Ground track
Ground track

The orbit data is extracted from the following two-line orbital elements,

1 27939U 03042A   17269.23076569  .00000225  00000-0  49035-4 0  9996
2 27939  97.9541  50.8009 0011634 265.0455 215.6058 14.66603685748125
Epoch (UTC): 26 September 2017 05:32:18
Eccentricity: 0.0011634
inclination: 97.9541°
perigee height: 664 km
apogee height: 680 km
right ascension of ascending node: 50.8009°
argument of perigee: 265.0455°
revolutions per day: 14.66603685
mean anomaly at epoch: 215.6058°
orbit number at epoch: 74812

The dashed part of the orbit path shows where the satellite is in the earth's shadow,  

DLR